Погода в Казинке

Россия / Рязанская область     53°54′12″N   39°24′20″E
темп.,
°C
ветер,
м/с
пор.,
м/с
влажн.,
%
обл.,
%
осадки,
мм/ч
давл.,
гПа
погр.,
м
17 апреля, сб
сб1700:00+11в4786100 0.4 1019171
03:00+10всв3391100 0.9 101950
06:00+9всв348670 0.0 101976
09:00+12всв588096 0.0 1019448
12:00+16в7962100 0.0 10181248
15:00+17вюв71155100 1.1 10171511
18:00+12юв61184100 11.7 1017802
21:00+9юз2393100 16.4 1018224
18 апреля, вс
вс1800:00+8юз3594100 5.9 1018389
03:00+7ююз2496100 13.7 1018273
06:00+7сз239290 4.6 1019147
09:00+8св0079100 4.6 1020454
12:00+11всв226792 0.3 10201055
15:00+11всв5573100 1.1 1020832
18:00+9всв5781100 0.6 1020622
21:00+8всв4889100 1.1 1021410
19 апреля, пн
пн1900:00+6всв369675 0.3 1022208
03:00+6всв4796100 0.3 1022215
06:00+5всв5996100 0.1 1022305
09:00+8всв6885100 0.5 1022564
12:00+9всв6776100 0.1 10211136
15:00+7всв81186100 1.1 1022849
18:00+6в71289100 0.0 1022767
21:00+5в71289100 0.0 1023698
20 апреля, вт
вт2000:00+4в71289100 0.0 1022674
03:00+5в71388100 0.0 1020615
06:00+4в81592100 0.5 1019653
09:00+5в91891100 2.9 1018831
12:00+5в91790100 1.6 1016887
15:00+6в112091100 7.1 1013857
18:00+6вюв132393100 11.8 10091099
21:00+7вюв122491100 17.5 10061327
21 апреля, ср
ср2100:00+9юв122189100 1.4 1004908
03:00+9вюв111995100 2.3 1001975
06:00+9ююв111883100 2.8 10011311
09:00+7ю111984100 4.3 10031319
12:00+6ю111886100 0.1 10061253
15:00+7ююз91579100 0.2 10101448
18:00+6ююз81383100 0.1 10131119
21:00+7ююз8148342 0.1 1015867